GAOFEN 11 (43585 NORAD) Tracking and Keplerian Element Data

This shows tracking and keplerian element data for the satellite.

Feedback or suggestion? Click here.




ElementValue
Catalog43585
NameGAOFEN 11
Epoch Orbit5480
Epoch Day203.20542538
Epoch Year2019
RAAN282.4895
Inclination97.4125
Eccentricity0.0016912
Argument of Perigee302.3889
Mean Anonmoly136.2316
Mean Motion15.23569973
Decay Rate3.33E-06
L11 43585U 18063A 19203.20542538 .00000333 00000-0 16880-4 0 9993
L22 43585 97.4125 282.4895 0016912 302.3889 136.2316 15.23569973 54804

Live tracking and technical data element details for GAOFEN 11 (NORAD 43585). GAOFEN 11 can be tracked NOW for your location showing map with azimuth and elevation plus other details from your city location.

Track the satellite on the map from your city or location and see movement details for azimuth, elevation, latitude, longitude, range, height, and movement on the map or in text.







IsCatalogInMostPopularTable: catalog: 43585, numindb: 142
Update: records affected: 1



GetName: 43585 GAOFEN 11

Hit Count: updated at: Tue, 23 Jul 2019 02:31:01 GMT